sat.trackr.live / text

‹ back to catalog

STARLINK-36444

NORAD 67521 · 2026-012AE

PAYLOAD ACTIVE UNKNOWN

§ Identity

Operator
Country
US
Launch date
2026-01-18
Launch site
AFETR
Launch vehicle
Mass (kg)
RCS (m²)

Purposes: comms

External: N2YO · Heavens-Above · Gunter

§ Orbital elements

Epoch: 2026-09-19T19:39:55.599264Z

Period
94.27 min
Inclination
43.0032°
Eccentricity
0.0001728
Mean motion
15.27589228 rev/d
Perigee alt
481.8 km
Apogee alt
484.2 km
Semi-major
6,861.2 km
B*
5.6646e-4
RAAN
297.8671°
Arg perigee
271.3298°
Mean anomaly
88.7356°
Rev number
3,745

§ Raw data

STARLINK-364441 67521U 26012AE  26262.81939351  .00015363  00000+0  56646-3 0  99962 67521  43.0032 297.8671 0001728 271.3298  88.7356 15.27589228 37450

JSON: /api/v1/satellites/67521 · /tle

For live sub-satellite position, see the globe view (requires WebGL).

§ Visibility from observer

Set your observer location to see the next 7 days of passes ≥ 10°. The values pass through the URL so the page stays shareable.

No JS? Fill the form by hand. The geolocation button needs JavaScript.